Location: Estes Par
(40.3770°N, 105.5210°W)
Time: 16:23:00
(UTC-06:00)

XW-2D - Visible Passes

Search period start: 21 March 2019 00:00
Search period end: 31 March 2019 00:00
Orbit: 508 x 529 km, 97.5° (Epoch: 21 March)

Date Brightness Start Highest point End Pass type
(mag) Time Alt. Az. Time Alt. Az. Time Alt. Az.
22 Mar ? 06:34:04 10° NNE 06:37:31 35° E 06:40:56 10° SSE visible
23 Mar ? 06:20:30 10° NE 06:23:33 24° E 06:26:35 10° SSE visible
24 Mar ? 06:07:10 10° NE 06:09:34 16° E 06:11:57 10° SE visible
25 Mar ? 05:54:29 10° ENE 05:55:32 11° E 05:56:36 10° ESE visible
30 Mar ? 06:17:20 10° NE 06:20:17 22° E 06:23:12 10° SSE visible
